Regional Weather Roundup
Issued by NWS Charleston, WV

Home | Current Version | Previous Version | Text Only | Print | Product List | Glossary On
Versions: 1 2 3 4 5 6 7 8 9 10 11 12 13 14 15 16 17 18 19 20 21 22 23 24 25 26 27 28 29 30 31 32 33 34 35 36 37 38 39 40 41 42 43 44 45 46 47 48 49 50
000
ASUS41 KRLX 051210
RWRRLX
West Virginia Regional Weather Roundup
National Weather Service Charleston WV
800 AM EDT THU MAY 05 2016

Note: "fair" indicates few or no clouds below 12,000 feet with no
significant weather and/or obstructions to visibility.

WVZ003-051300-
Northern Panhandle of West Virginia

CITY           SKY/WX    TMP DP  RH WIND       PRES   REMARKS
WHEELING       LGT RAIN  50  47  89 N5        29.70R FOG
$$

WVZ009-051300-
Northwest West Virginia

CITY           SKY/WX    TMP DP  RH WIND       PRES   REMARKS
PARKERSBURG    LGT RAIN  45  43  93 NW8       29.75R
$$

WVZ006-051300-
Western West Virginia

CITY           SKY/WX    TMP DP  RH WIND       PRES   REMARKS
HUNTINGTON     CLOUDY    45  39  79 W3        29.75R
$$

WVZ015-051300-
West Central West Virginia

CITY           SKY/WX    TMP DP  RH WIND       PRES   REMARKS
CHARLESTON     PTSUNNY   45  41  86 W6        29.73R
$$

WVZ022-031-051300-
North Central West Virginia

CITY           SKY/WX    TMP DP  RH WIND       PRES   REMARKS
CLARKSBURG     LGT RAIN  50  48  93 CALM      29.68R FOG
MORGANTOWN     CLOUDY    50  46  86 N3        29.69R FOG
$$

WVZ025-035-042-045-051300-
Southern West Virginia

CITY           SKY/WX    TMP DP  RH WIND       PRES   REMARKS
BECKLEY        LGT RAIN  42  39  89 NW12      29.68R
LOGAN          NOT AVBL
BLUEFIELD      CLOUDY    39  37  92 NW9       29.69R
LEWISBURG      DRIZZLE   45  42  91 CALM      29.65R
$$

WVZ047-051300-
Northern Mountains of West Virginia

CITY           SKY/WX    TMP DP  RH WIND       PRES   REMARKS
ELKINS         LGT RAIN  46  43  89 NW5       29.67R
$$

WVZ052-051300-
Eastern Panhandle of West Virginia

CITY           SKY/WX    TMP DP  RH WIND       PRES   REMARKS
MARTINSBURG    CLOUDY    50  48  93 VRB7      29.67R FOG
PETERSBURG     DRIZZLE   53  51  94 N3        29.66R
$$



USA.gov is the U.S. government's official web portal to all federal, state and local government web resources and services.